KB2EAR-13 Weather Reports


Display with metric or nautical units.
time (UTC)temp
F
wind
direction
speed
MPH
gust
MPH
rain 1hr
in
rain 24hr
in
rain mn
in
humidity
%
barometer
mb
20260510190017 75 315 1.0 5.0 0.01 0.01 0.01 56 1013.8
20260510185517 75 270 1.0 7.0 0.00 0.00 0.00 56 1013.8
20260510185017 75 315 2.0 5.0 0.00 0.00 0.00 56 1013.8
20260510184517 75 338 2.0 4.0 0.00 0.00 0.00 56 1013.9
20260510184017 75 315 1.0 3.0 0.00 0.00 0.00 57 1013.8
20260510183517 75 315 2.0 6.0 0.00 0.00 0.00 57 1013.8
20260510183018 75 338 3.0 6.0 0.00 0.00 0.00 56 1013.7
20260510182517 75 315 2.0 5.0 0.00 0.00 0.00 56 1013.8
20260510182017 75 338 2.0 7.0 0.00 0.00 0.00 57 1013.7
20260510181517 75 315 2.0 5.0 0.00 0.00 0.00 58 1013.7
20260510181018 75 315 3.0 6.0 0.00 0.00 0.00 61 1013.7
20260510180517 75 0 1.0 4.0 0.00 0.00 0.00 63 1013.7
20260510180017 74 0.0 1.0 0.00 0.00 0.00 62 1013.8
20260510175517 74 338 1.0 3.0 0.00 0.00 0.00 63 1013.6
20260510175017 74 23 1.0 4.0 0.00 0.00 0.00 64 1013.7
20260510174517 74 248 2.0 6.0 0.00 0.00 0.00 65 1013.7
20260510174017 75 248 2.0 5.0 0.00 0.00 0.00 64 1013.7
20260510173517 74 270 1.0 3.0 0.00 0.00 0.00 65 1013.7
20260510173017 74 0.0 2.0 0.00 0.00 0.00 69 1013.7
20260510172517 73 270 1.0 4.0 0.00 0.00 0.00 68 1013.7
20260510172017 73 0.0 2.0 0.00 0.00 0.00 68 1013.6
20260510171517 73 315 1.0 3.0 0.00 0.00 0.00 68 1013.5
20260510171017 73 270 1.0 6.0 0.00 0.00 0.00 67 1013.5
20260510170518 72 248 1.0 4.0 0.00 0.00 0.00 69 1013.6
20260510170017 72 248 1.0 5.0 0.00 0.00 0.00 70 1013.8
20260510165517 72 248 1.0 8.0 0.00 0.00 0.00 71 1013.9
20260510165017 72 0.0 4.0 0.00 0.00 0.00 71 1014.0
20260510164517 71 0.0 1.0 0.00 0.00 0.00 72 1013.9
20260510164017 70 0.0 2.0 0.00 0.00 0.00 74 1014.0
20260510163517 70 315 1.0 5.0 0.00 0.00 0.00 73 1014.0
20260510163017 69 0.0 2.0 0.00 0.00 0.00 74 1014.0
20260510162517 69 0.0 3.0 0.00 0.00 0.00 75 1013.9
20260510162017 68 0.0 2.0 0.00 0.00 0.00 76 1014.1
20260510161517 68 90 1.0 2.0 0.00 0.00 0.00 77 1014.0
20260510161017 68 113 1.0 4.0 0.00 0.00 0.00 77 1013.9
20260510160517 67 0.0 2.0 0.00 0.00 0.00 79 1014.0
20260510160149 67 0.0 2.0 0.00 0.00 0.00 80 1014.1
20260510160036 66 0.0 2.0 0.00 0.00 0.00 80 1014.2
20260510155517 66 0.0 2.0 0.00 0.00 0.00 80 1014.2
20260510155017 65 338 1.0 2.0 0.00 0.00 0.00 81 1014.5
20260510154517 65 0.0 2.0 0.00 0.00 0.00 82 1014.4
20260510154017 65 248 1.0 4.0 0.00 0.00 0.00 83 1014.3
20260510153517 64 0.0 4.0 0.00 0.00 0.00 83 1014.2
20260510153344 64 0.0 4.0 0.00 0.00 0.00 84 1014.4
20260510153017 64 0.0 4.0 0.00 0.00 0.00 84 1014.4
20260510152517 63 270 1.0 2.0 0.00 0.00 0.00 84 1014.5
20260510152017 63 248 1.0 4.0 0.00 0.00 0.00 86 1014.5
20260510151517 62 0.0 1.0 0.00 0.00 0.00 89 1014.6
20260510151017 61 0.0 2.0 0.00 0.00 0.00 89 1014.5
20260510150517 61 248 1.0 5.0 0.00 0.00 0.00 89 1014.4
20260510150017 61 0.0 3.0 0.00 0.00 0.00 92 1014.3
20260510145517 60 0.0 1.0 0.00 0.00 0.00 93 1014.4
20260510145017 59 0.0 2.0 0.00 0.00 0.00 95 1014.2
20260510144517 59 0.0 2.0 0.00 0.00 0.00 96 1014.2
20260510144017 58 0.0 1.0 0.00 0.00 0.00 95 1014.3
20260510143517 58 0.0 2.0 0.00 0.00 0.00 96 1014.3
20260510143017 58 0.0 2.0 0.00 0.00 0.00 96 1014.4
20260510142517 57 0.0 1.0 0.00 0.00 0.00 96 1014.1
20260510142017 57 0.0 3.0 0.00 0.00 0.00 96 1014.1
20260510141517 56 248 1.0 3.0 0.00 0.00 0.00 96 1014.1
20260510141017 56 0.0 3.0 0.00 0.00 0.00 96 1014.1
20260510140517 56 0.0 2.0 0.00 0.00 0.00 96 1014.1
20260510140017 56 0.0 0.0 0.00 0.00 0.00 97 1014.1
20260510135517 56 0.0 0.0 0.00 0.00 0.00 97 1014.1
20260510135017 55 0.0 0.0 0.00 0.00 0.00 97 1014.2
20260510134517 55 0.0 0.0 0.00 0.00 0.00 97 1014.2
20260510134017 55 0.0 0.0 0.00 0.00 0.00 97 1014.2
20260510133517 55 0.0 0.0 0.00 0.00 0.00 97 1014.3
20260510133017 55 0.0 1.0 0.00 0.00 0.00 97 1014.3
20260510132517 55 0.0 1.0 0.00 0.00 0.00 97 1014.4
20260510132017 55 0.0 1.0 0.00 0.00 0.00 97 1014.4
20260510131517 54 0.0 0.0 0.00 0.00 0.00 97 1014.5
20260510131017 54 0.0 1.0 0.00 0.00 0.00 97 1014.4
20260510130517 54 0.0 1.0 0.00 0.00 0.00 97 1014.3
20260510130017 54 0.0 2.0 0.00 0.00 0.00 96 1014.1
20260510125517 54 0.0 0.0 0.00 0.00 0.00 97 1013.8
20260510125017 54 0.0 0.0 0.00 0.00 0.00 97 1013.7
20260510124517 54 0.0 0.0 0.00 0.00 0.00 97 1013.9
20260510124017 53 0.0 0.0 0.00 0.00 0.00 97 1013.7
20260510123517 53 0.0 1.0 0.00 0.00 0.00 97 1013.8
20260510123017 53 0.0 0.0 0.00 0.00 0.00 97 1013.7
20260510122517 53 0.0 0.0 0.00 0.00 0.00 97 1013.8
20260510122017 53 0.0 0.0 0.00 0.00 0.00 97 1013.8
20260510121517 53 0.0 0.0 0.00 0.00 0.00 97 1013.7
20260510121017 53 0.0 0.0 0.00 0.00 0.00 97 1013.6
20260510120517 53 0.0 1.0 0.00 0.00 0.00 97 1013.6
20260510120017 53 0.0 0.0 0.00 0.00 0.00 97 1013.5
20260510115517 52 0.0 0.0 0.00 0.00 0.00 97 1013.5
20260510115017 52 0.0 0.0 0.00 0.00 0.00 97 1013.5
20260510114516 52 0.0 0.0 0.00 0.00 0.00 97 1013.5
20260510114017 52 0.0 0.0 0.00 0.00 0.00 97 1013.5
20260510113517 52 0.0 0.0 0.00 0.00 0.00 97 1013.4
20260510113017 52 0.0 0.0 0.00 0.00 0.00 97 1013.5
20260510112517 52 0.0 0.0 0.00 0.00 0.00 97 1013.3
20260510112017 52 0.0 0.0 0.00 0.00 0.00 97 1013.3
20260510111517 52 0.0 0.0 0.00 0.00 0.00 97 1013.2
20260510111017 52 0.0 0.0 0.00 0.00 0.00 97 1013.3
20260510110517 51 0.0 0.0 0.00 0.00 0.00 97 1013.2
20260510110016 51 0.0 0.0 0.00 0.00 0.00 97 1013.1
20260510105517 51 0.0 0.0 0.00 0.00 0.00 97 1013.1
20260510105102 51 0.0 0.0 0.00 0.00 0.00 97 1012.9
20260510105017 51 0.0 0.0 0.00 0.00 0.00 97 1012.9
20260510104517 51 0.0 0.0 0.00 0.00 0.00 97 1012.8
20260510104016 51 0.0 0.0 0.00 0.00 0.00 97 1012.7
20260510103517 51 0.0 0.0 0.00 0.00 0.00 97 1012.8
20260510103017 51 0.0 0.0 0.00 0.00 0.00 97 1012.8
20260510102517 51 0.0 0.0 0.00 0.00 0.00 97 1012.7
20260510102016 50 0.0 0.0 0.00 0.00 0.00 96 1012.7
20260510101516 50 0.0 0.0 0.00 0.00 0.00 96 1012.7
20260510101016 50 0.0 0.0 0.00 0.00 0.00 96 1012.8
20260510100517 50 0.0 0.0 0.00 0.00 0.00 96 1012.8
20260510100150 50 0.0 1.0 0.00 0.00 0.00 96 1012.7
20260510100037 50 0.0 0.0 0.00 0.00 0.00 96 1012.8
20260510095517 50 0.0 0.0 0.00 0.00 0.00 96 1012.8
20260510095017 50 0.0 0.0 0.00 0.00 0.00 96 1012.8
20260510094517 50 0.0 1.0 0.00 0.00 0.00 96 1012.7
20260510094017 50 0.0 1.0 0.00 0.00 0.00 96 1012.7
20260510093517 50 0.0 0.0 0.00 0.00 0.00 96 1012.9
20260510093017 50 0.0 1.0 0.00 0.00 0.00 96 1012.7
20260510092517 50 0.0 1.0 0.00 0.00 0.00 96 1012.8
20260510092017 51 0.0 3.0 0.00 0.00 0.00 96 1012.8
20260510091517 51 23 1.0 4.0 0.00 0.00 0.00 96 1013.1
20260510091017 51 0 1.0 3.0 0.00 0.00 0.00 96 1012.8
20260510090517 51 0.0 1.0 0.00 0.00 0.00 96 1012.9
20260510090016 51 0.0 2.0 0.00 0.00 0.00 96 1012.8
20260510085516 51 0.0 2.0 0.00 0.00 0.00 96 1012.8
20260510085016 51 0.0 3.0 0.00 0.00 0.00 96 1012.8
20260510084516 51 68 1.0 3.0 0.00 0.00 0.00 96 1012.6
20260510084016 50 0.0 2.0 0.00 0.00 0.00 96 1012.8
20260510083517 50 0.0 0.0 0.00 0.00 0.00 96 1012.3
20260510083017 50 0.0 0.0 0.00 0.00 0.00 96 1012.3
20260510082516 50 0.0 1.0 0.00 0.00 0.00 96 1012.1
20260510082016 50 0.0 1.0 0.00 0.00 0.00 96 1012.2
20260510081516 50 0.0 0.0 0.00 0.00 0.00 96 1012.3
20260510081016 50 0.0 0.0 0.00 0.00 0.00 96 1012.1
20260510080516 50 0.0 0.0 0.00 0.00 0.00 96 1012.2
20260510080017 50 0.0 0.0 0.00 0.00 0.00 96 1012.1
20260510075516 49 0.0 0.0 0.00 0.00 0.00 96 1012.1
20260510075016 49 0.0 0.0 0.00 0.00 0.00 96 1011.9
20260510074516 49 0.0 0.0 0.00 0.00 0.00 96 1012.1
20260510074016 49 0.0 0.0 0.00 0.00 0.00 96 1012.1
20260510073516 49 0.0 0.0 0.00 0.00 0.00 96 1012.0
20260510073016 49 0.0 0.0 0.00 0.00 0.00 96 1012.0
20260510072516 49 0.0 0.0 0.00 0.00 0.00 96 1012.1
20260510072016 48 0.0 0.0 0.00 0.00 0.00 96 1011.9
20260510071516 48 0.0 0.0 0.00 0.00 0.00 96 1012.0
20260510071226 48 0.0 0.0 0.00 0.00 0.00 96 1012.0
20260510071016 48 0.0 0.0 0.00 0.00 0.00 96 1012.0
20260510070517 48 0.0 1.0 0.00 0.00 0.00 96 1012.0
20260510070016 48 0.0 1.0 0.00 0.00 0.00 96 1011.9
20260510065807 48 0.0 1.0 0.00 0.00 0.00 96 1011.8
20260510065516 48 0.0 1.0 0.00 0.00 0.00 96 1011.8
20260510065158 48 0.0 0.0 0.00 0.00 0.00 96 1011.6
20260510065016 48 0.0 0.0 0.00 0.00 0.00 96 1011.6
20260510064725 48 0.0 0.0 0.00 0.00 0.00 96 1011.5
20260510064516 48 0.0 0.0 0.00 0.00 0.00 96 1011.5
20260510064205 48 0.0 0.0 0.00 0.00 0.00 96 1011.6
20260510064016 48 0.0 0.0 0.00 0.00 0.00 96 1011.6
20260510063705 48 0.0 0.0 0.00 0.00 0.00 95 1011.5
20260510063516 48 0.0 0.0 0.00 0.00 0.00 95 1011.5
20260510063201 48 0.0 0.0 0.00 0.00 0.00 95 1011.5
20260510063016 48 0.0 0.0 0.00 0.00 0.00 95 1011.5
20260510062729 48 0.0 0.0 0.00 0.00 0.00 95 1011.7
20260510062517 48 0.0 0.0 0.00 0.00 0.00 95 1011.7
20260510062144 48 0.0 0.0 0.00 0.00 0.00 95 1011.6
20260510062016 48 0.0 0.0 0.00 0.00 0.00 95 1011.6
20260510061516 48 0.0 0.0 0.00 0.00 0.00 95 1011.6
20260510061207 48 0.0 0.0 0.00 0.00 0.00 95 1011.7
20260510061016 48 0.0 0.0 0.00 0.00 0.00 95 1011.7
20260510060654 48 0.0 0.0 0.00 0.00 0.00 95 1011.6
20260510060516 48 0.0 0.0 0.00 0.00 0.00 95 1011.6
20260510060154 48 0.0 0.0 0.00 0.00 0.00 95 1011.7
20260510060016 48 0.0 0.0 0.00 0.00 0.00 95 1011.7
20260510055730 49 0.0 0.0 0.00 0.00 0.00 95 1011.6
20260510055516 49 0.0 0.0 0.00 0.00 0.00 95 1011.6
20260510055200 49 0.0 0.0 0.00 0.00 0.00 95 1011.7
20260510055016 49 0.0 0.0 0.00 0.00 0.00 95 1011.7
20260510054651 49 0.0 0.0 0.00 0.00 0.00 95 1011.8
20260510054516 49 0.0 0.0 0.00 0.00 0.00 95 1011.8
20260510054016 49 0.0 0.0 0.00 0.00 0.00 95 1011.8
20260510053652 49 0.0 0.0 0.00 0.00 0.00 95 1011.8
20260510053516 49 0.0 0.0 0.00 0.00 0.00 95 1011.8
20260510053203 49 0.0 0.0 0.00 0.00 0.00 95 1011.6
20260510053016 49 0.0 0.0 0.00 0.00 0.00 95 1011.6
20260510052516 49 0.0 0.0 0.00 0.00 0.00 95 1011.6
20260510052016 49 0.0 0.0 0.00 0.00 0.00 95 1011.8
20260510051516 49 0.0 0.0 0.00 0.00 0.00 95 1011.9
20260510051016 49 0.0 0.0 0.00 0.00 0.00 95 1011.9
20260510050516 49 0.0 0.0 0.00 0.00 0.00 95 1011.8
20260510050016 49 0.0 0.0 0.00 0.00 0.00 95 1011.9
20260510045516 49 0.0 0.0 0.00 0.00 0.00 95 1011.9
20260510045016 49 0.0 0.0 0.00 0.00 0.00 95 1011.9
20260510044516 49 0.0 0.0 0.00 0.00 0.00 95 1012.0
20260510044016 49 0.0 0.0 0.00 0.00 0.00 95 1012.1
20260510043621 49 0.0 0.0 0.00 0.00 0.00 95 1012.0
20260510043516 49 0.0 0.0 0.00 0.00 0.00 95 1012.0
20260510043016 48 0.0 0.0 0.00 0.00 0.00 95 1012.1
20260510042516 48 0.0 0.0 0.00 0.00 0.00 95 1012.1
20260510042016 48 0.0 0.0 0.00 0.00 0.00 95 1012.0
20260510041516 48 0.0 0.0 0.00 0.00 0.00 95 1012.1
20260510041016 48 0.0 0.0 0.00 0.00 0.00 95 1012.2
20260510040516 48 0.0 0.0 0.00 0.00 0.00 95 1012.2
20260510040151 48 0.0 0.0 0.00 0.00 0.00 95 1012.1
20260510040035 48 0.0 0.0 0.00 0.00 0.00 95 1012.0
20260510035516 48 0.0 0.0 0.00 0.00 0.00 95 1012.0
20260510035016 48 0.0 0.0 0.00 0.00 0.00 95 1011.9
20260510034706 48 0.0 0.0 0.00 0.00 0.00 95 1011.9
20260510034516 48 0.0 0.0 0.00 0.00 0.00 95 1011.9
20260510034016 48 0.0 0.0 0.00 0.00 0.00 95 1011.9
20260510033516 48 0.0 0.0 0.00 0.00 0.00 95 1011.8
20260510033016 48 0.0 0.0 0.00 0.00 0.00 95 1011.7
20260510032516 48 0.0 0.0 0.00 0.00 0.00 94 1011.7
20260510032016 48 0.0 0.0 0.00 0.00 0.00 94 1011.8
20260510031547 49 0.0 0.0 0.00 0.00 0.00 95 1011.7
20260510031516 49 0.0 0.0 0.00 0.00 0.00 95 1011.7
20260510031016 49 0.0 0.0 0.00 0.00 0.00 95 1011.8
20260510030516 49 0.0 0.0 0.00 0.00 0.00 95 1011.8
20260510030016 49 0.0 0.0 0.00 0.00 0.00 94 1011.7
20260510025516 49 0.0 0.0 0.00 0.00 0.00 94 1011.7
20260510025016 49 0.0 0.0 0.00 0.00 0.00 94 1011.7
20260510024516 49 0.0 0.0 0.00 0.00 0.00 94 1011.6
20260510024016 49 0.0 0.0 0.00 0.00 0.00 94 1011.6
20260510023516 49 0.0 0.0 0.00 0.00 0.00 94 1011.6
20260510023016 50 0.0 0.0 0.00 0.00 0.00 94 1011.5
20260510022556 50 0.0 0.0 0.00 0.00 0.00 94 1011.6
20260510022516 50 0.0 0.0 0.00 0.00 0.00 94 1011.6
20260510022016 50 0.0 0.0 0.00 0.00 0.00 94 1011.6
20260510021646 50 0.0 0.0 0.00 0.00 0.00 94 1011.7
20260510021516 50 0.0 0.0 0.00 0.00 0.00 94 1011.7
20260510021016 50 0.0 0.0 0.00 0.00 0.00 94 1011.7
20260510020516 50 0.0 0.0 0.00 0.00 0.00 94 1011.6
20260510020016 50 0.0 0.0 0.00 0.00 0.00 94 1011.6
20260510015824 51 0.0 0.0 0.00 0.00 0.00 94 1011.7
20260510015553 51 0.0 0.0 0.00 0.00 0.00 94 1011.7
20260510015516 51 0.0 0.0 0.00 0.00 0.00 94 1011.7
20260510015016 51 0.0 0.0 0.00 0.00 0.00 94 1011.7
20260510014518 51 0.0 0.0 0.00 0.00 0.00 94 1011.8
20260510014018 51 0.0 0.0 0.00 0.00 0.00 94 1011.6
20260510013518 51 0.0 0.0 0.00 0.00 0.00 93 1011.5
20260510013018 52 0.0 0.0 0.00 0.00 0.00 94 1011.6
20260510012558 52 0.0 0.0 0.00 0.00 0.00 94 1011.6
20260510012518 52 0.0 0.0 0.00 0.00 0.00 94 1011.6
20260510012018 52 0.0 0.0 0.00 0.00 0.00 93 1011.5
20260510011518 52 0.0 0.0 0.00 0.00 0.00 93 1011.5
20260510011018 52 0.0 0.0 0.00 0.00 0.00 93 1011.5
20260510010518 52 0.0 0.0 0.00 0.00 0.00 93 1011.5
20260510010018 53 0.0 0.0 0.00 0.00 0.00 93 1011.4
20260510005518 53 0.0 0.0 0.00 0.00 0.00 93 1011.4
20260510005018 53 0.0 0.0 0.00 0.00 0.00 93 1011.3
20260510004830 53 0.0 0.0 0.00 0.00 0.00 93 1011.2
20260510004518 53 0.0 0.0 0.00 0.00 0.00 93 1011.2
20260510004018 53 0.0 0.0 0.00 0.00 0.00 93 1011.2
20260510003518 53 0.0 0.0 0.00 0.00 0.00 93 1011.2
20260510003018 53 0.0 0.0 0.00 0.00 0.00 92 1011.2
20260510002518 54 0.0 0.0 0.00 0.00 0.00 92 1011.2
20260510002018 54 0.0 0.0 0.00 0.00 0.00 92 1011.1
20260510001518 54 0.0 0.0 0.00 0.00 0.00 92 1011.2
20260510001018 55 0.0 0.0 0.00 0.00 0.00 92 1011.2
20260510000518 55 0.0 0.0 0.00 0.00 0.00 92 1011.1
20260510000018 55 0.0 0.0 0.00 0.00 0.00 92 1011.1
20260509235518 55 0.0 0.0 0.00 0.00 0.00 92 1011.0
20260509235018 56 0.0 0.0 0.00 0.00 0.00 92 1011.0
20260509234518 56 0.0 0.0 0.00 0.00 0.00 92 1011.1
20260509234018 56 0.0 0.0 0.00 0.00 0.00 92 1011.1
20260509233518 56 0.0 0.0 0.00 0.00 0.00 92 1011.2
20260509233017 56 0.0 0.0 0.00 0.00 0.00 93 1011.1
20260509232518 56 0.0 0.0 0.00 0.00 0.00 92 1011.1
20260509232108 56 0.0 1.0 0.00 0.00 0.00 92
20260509232017 56 0.0 1.0 0.00 0.00 0.00 92
20260509231518 56 0.0 1.0 0.00 0.00 0.00 92
20260509231017 56 0.0 2.0 0.00 0.00 0.00 92
20260509230730 57 0.0 2.0 0.00 0.00 0.00 92
20260509230518 57 0.0 2.0 0.00 0.00 0.00 92
20260509230018 57 0.0 2.0 0.00 0.00 0.00 92
20260509225818 57 0.0 2.0 0.00 0.00 0.00 92
20260509225518 57 0.0 2.0 0.00 0.00 0.00 92
20260509225239 57 0.0 2.0 0.00 0.00 0.00 92
20260509225018 57 0.0 2.0 0.00 0.00 0.00 92
20260509224518 57 0.0 1.0 0.00 0.00 0.00 92
20260509224315 57 0.0 2.0 0.00 0.00 0.00 92
20260509224018 57 0.0 2.0 0.00 0.00 0.00 92
20260509223517 57 0.0 0.0 0.00 0.00 0.00 92
20260509223237 57 0.0 2.0 0.00 0.00 0.00 92
20260509223017 57 0.0 2.0 0.00 0.00 0.00 92
20260509222816 57 0.0 0.0 0.00 0.00 0.00 92
20260509222518 57 0.0 0.0 0.00 0.00 0.00 92
20260509222238 56 0.0 0.0 0.00 0.00 0.00 91 1011.1
20260509222018 56 0.0 0.0 0.00 0.00 0.00 91 1011.1
20260509221518 57 0.0 1.0 0.00 0.00 0.00 91 1011.2
20260509221305 57 0.0 0.0 0.00 0.00 0.00 92 1011.3
20260509221018 57 0.0 0.0 0.00 0.00 0.00 92 1011.3
20260509220756 57 0.0 1.0 0.00 0.00 0.00 92 1011.3
20260509220518 57 0.0 1.0 0.00 0.00 0.00 92 1011.3
20260509220238 56 0.0 1.0 0.00 0.00 0.00 91 1011.4
20260509220150 56 0.0 0.0 0.00 0.00 0.00 91 1011.3
20260509220038 56 0.0 1.0 0.00 0.00 0.00 91 1011.4
20260509215809 56 0.0 1.0 0.00 0.00 0.00 91 1011.4
20260509215517 56 0.0 1.0 0.00 0.00 0.00 91 1011.4
20260509215333 56 0.0 0.0 0.00 0.00 0.00 91 1011.5
20260509215018 56 0.0 0.0 0.00 0.00 0.00 91 1011.5
20260509214517 56 0.0 0.0 0.00 0.00 0.00 89 1011.5
20260509214018 56 0.0 0.0 0.00 0.00 0.00 88 1011.7
20260509213518 57 0.0 1.0 0.00 0.00 0.00 87 1011.9
20260509213018 57 0.0 0.0 0.00 0.00 0.00 86 1011.7
20260509212517 58 0.0 0.0 0.00 0.00 0.00 85 1011.5
20260509212018 58 0.0 0.0 0.00 0.00 0.00 84 1011.5
20260509211518 58 0.0 1.0 0.00 0.00 0.00 82 1011.6
20260509211018 58 0.0 2.0 0.00 0.00 0.00 81 1011.6
20260509210517 59 0.0 1.0 0.00 0.00 0.00 81 1011.5
20260509210017 59 0.0 0.0 0.00 0.00 0.00 81 1011.2
20260509205518 59 0.0 1.0 0.00 0.00 0.00 81 1011.0
20260509205017 59 0.0 2.0 0.00 0.00 0.00 80 1011.1
20260509204517 59 0.0 2.0 0.00 0.00 0.00 80 1011.2
20260509204017 59 0.0 2.0 0.00 0.00 0.00 79 1011.3
20260509203518 59 0.0 1.0 0.00 0.00 0.00 79 1011.4
20260509203017 59 338 1.0 2.0 0.00 0.00 0.00 78 1011.3
20260509202517 59 338 1.0 3.0 0.00 0.00 0.00 78 1011.4
20260509202017 59 23 1.0 3.0 0.00 0.00 0.00 78 1011.3
20260509201517 59 0.0 2.0 0.00 0.00 0.00 79 1011.4
20260509201017 59 45 1.0 5.0 0.00 0.00 0.00 80 1011.4
20260509200517 59 23 3.0 7.0 0.00 0.00 0.00 80 1011.3
20260509200017 59 23 2.0 6.0 0.00 0.00 0.00 80 1011.4
20260509195517 59 338 2.0 6.0 0.00 0.00 0.00 80 1011.5
20260509195040 59 338 2.0 8.0 0.00 0.00 0.00 79 1011.5
20260509195018 59 338 2.0 9.0 0.00 0.00 0.00 79 1011.5
20260509194517 59 338 2.0 8.0 0.00 0.00 0.00 79 1011.5
20260509194017 59 338 1.0 7.0 0.00 0.00 0.00 79 1011.6
20260509193518 59 0 2.0 5.0 0.00 0.00 0.00 79 1011.6
20260509193017 59 315 1.0 2.0 0.00 0.00 0.00 79 1011.8
20260509192517 60 0 1.0 4.0 0.00 0.00 0.00 78 1011.7
20260509192018 60 338 1.0 3.0 0.00 0.00 0.00 78 1011.8
20260509191518 60 0 2.0 5.0 0.00 0.00 0.00 77 1011.8
20260509191018 60 338 2.0 5.0 0.00 0.00 0.00 77 1011.8
20260509190517 60 338 2.0 6.0 0.00 0.00 0.00 77 1011.8